Regional Weather Roundup
Issued by NWS

Home | Current Version | Previous Version | Graphics & Text | Print | Product List | Glossary On
Versions: 1 2 3 4 5 6 7 8 9 10 11 12 13 14 15 16 17 18 19 20 21 22 23 24 25 26 27 28 29 30 31 32 33 34 35 36 37 38 39 40 41 42 43 44 45 46 47 48 49
000
ASUS45 KBOU 161607
RWRCO

WEATHER ROUNDUP FOR COLORADO
NATIONAL WEATHER SERVICE DENVER/BOULDER CO
1000 AM MDT TUE SEP 16 2014

NOTE: "FAIR" INDICATES FEW OR NO CLOUDS BELOW 12000 FEET WITH NO
SIGNIFICANT WEATHER AND/OR OBSTRUCTIONS TO VISIBILITY.

COZ001>005-013-030-031-161700-
...NORTHWEST COLORADO...

CITY           SKY/WX    TMP DP  RH WIND       PRES   REMARKS
CRAIG          SUNNY     65  43  44 E7        30.30F
HAYDEN         SUNNY     61  37  41 E15       30.32S
MEEKER         SUNNY     62  39  42 CALM      30.32S
MOUNT WERNER   NOT AVBL
STEAMBOAT SPGS SUNNY     56  41  58 CALM      30.34F
WALDEN         SUNNY     55  36  47 CALM      30.41S
$$

COZ006>008-011-161700-
...WEST CENTRAL VALLEYS...

CITY           SKY/WX    TMP DP  RH WIND       PRES   REMARKS
GRAND JUNCTION SUNNY     71  42  35 SE7       30.23S
MONTROSE       SUNNY     71  43  36 CALM      30.30F
EAGLE          MOSUNNY   54  41  62 CALM      30.40F
RIFLE          SUNNY     60  41  49 CALM      30.30S
DELTA          SUNNY     69  41  36 NE6       30.28F
NUCLA          SUNNY     68  43  40 CALM      30.35S
$$

COZ017>023-064>068-161700-
...SOUTHWEST COLORADO...

CITY           SKY/WX    TMP DP  RH WIND       PRES   REMARKS
DURANGO        SUNNY     66  48  52 SE3       30.37S
CORTEZ         SUNNY     70  47  43 CALM      30.32S
PAGOSA SPRINGS SUNNY     64  41  42 CALM      30.43S
TELLURIDE      NOT AVBL
WOLF CREEK PAS SUNNY     50  34  53 NE10      30.69S
$$

COZ009-010-012-014-032>034-037-058>063-161700-
...CENTRAL COLORADO...

CITY           SKY/WX    TMP DP  RH WIND       PRES   REMARKS
ASPEN          MOSUNNY   59  37  44 CALM      30.41S
BUENA VISTA    MOSUNNY   61  41  47 SE3       30.44F
COPPER MTN     CLOUDY    54  32  43 W9G18     30.69R
BERTHOUD PASS  FAIR      43  43 100 N13G30    30.70R
COTTONWOOD PAS MOSUNNY   61  36  39 SE5       30.55S
GUNNISON       SUNNY     55  37  50 CALM      30.48F
KREMMLING      SUNNY     50  36  57 CALM      30.43F
LEADVILLE      MOSUNNY   53  37  54 W3        30.54S
MONARCH PASS   SUNNY     46  32  57 W10       30.80R
SALIDA         MOSUNNY   62  44  51 CALM      30.49S
SUNLIGHT       MOSUNNY   55  36  47 CALM      30.62S
WILKERSON PASS NOT AVBL
$$

COZ069>075-161700-
...SAN LUIS VALLEY/SANGRE DE CRISTO MOUNTAINS...

CITY           SKY/WX    TMP DP  RH WIND       PRES   REMARKS
ALAMOSA        SUNNY     58  44  60 CALM      30.43S
LA VETA PASS   NOT AVBL
SAGUACHE       SUNNY     61  43  51 CALM      30.46S
$$

COZ035-036-038>040-161700-
...NORTHERN COLORADO FRONT RANGE...

CITY           SKY/WX    TMP DP  RH WIND       PRES   REMARKS
DENVER INTL AP MOSUNNY   76  43  30 SW12      30.20S
DMNS CITY PARK   N/A     75  45  34 S2        30.20S
AURORA         MOSUNNY   74  45  35 W5        30.23R
FRONT RANGE AP MOSUNNY   77  45  31 W9        30.22R
ERIE MUNI ARPT SUNNY     76  40  26 CALM      30.18S
BOULDER MUN AP SUNNY     73  45  35 E5        30.18S
CENTENNIAL     MOSUNNY   75  42  30 SW13      30.23S
BROOMFIELD     NOT AVBL
FORT COLLINS   SUNNY     68  48  49 N3        30.18S
LONGMONT       SUNNY     76  51  40 NE3       30.18S
$$

COZ041-046-047-076>085-087-088-161700-
...PIKES PEAK/PALMER DIVIDE AND SOUTHERN FOOTHILLS...

CITY           SKY/WX    TMP DP  RH WIND       PRES   REMARKS
COLO. SPRINGS  MOSUNNY   76  45  33 NW9       30.27S
A. F. ACADEMY  SUNNY     76  37  24 N8        30.29S
ELLICOTT       NOT AVBL
FALCON         SUNNY     76  33  21 NW8       30.32S
FORT CARSON    SUNNY     67  51  56 SW3       30.25S
LIMON          NOT AVBL
MONUMENT HILL  SUNNY     72  37  28 NW9       30.32S
TRINIDAD       SUNNY     71  48  43 SW13      30.26F
$$

COZ042>045-048>051-090-091-161700-
...NORTHEAST COLORADO...

CITY           SKY/WX    TMP DP  RH WIND       PRES   REMARKS
GREELEY ARPT   SUNNY     66  48  52 SW6       30.17S
AKRON          SUNNY     68  51  54 W21       30.14R
BURLINGTON     SUNNY     65  52  62 SW15      30.16S
WRAY           MOSUNNY   70  56  61 S8        30.11F
STERLING       SUNNY     68  59  73 W8        30.10S
HOLYOKE        MOSUNNY   66  55  68 SW7       30.10S
FORT MORGAN    SUNNY     65  52  61 SW8       30.15S
$$

COZ086-089-092>099-161700-
...SOUTHEAST COLORADO...

CITY           SKY/WX    TMP DP  RH WIND       PRES   REMARKS
PUEBLO         SUNNY     64  52  64 CALM      30.21S
LA JUNTA       SUNNY     64  53  67 SW8       30.19F
LAMAR          SUNNY     67  54  63 W8        30.16F
SPRINGFIELD      N/A     69  56  62 VRB7      30.20F
$$


USA.gov is the U.S. government's official web portal to all federal, state and local government web resources and services.